Regional Weather Roundup
Issued by NWS

Home | Current Version | Previous Version | Graphics & Text | Print | Product List | Glossary On
Versions: 1 2 3 4 5 6 7 8 9 10 11 12 13 14 15 16 17 18 19 20 21 22 23 24 25 26 27 28
000
ASUS45 KSLC 260610
RWRUT

UTAH REGIONAL WEATHER ROUNDUP
NATIONAL WEATHER SERVICE SALT LAKE CITY UT
1200 AM MDT WED APR 26 2017

UTZ001>011-023>025-260700-

NORTHERN UTAH

CITY           SKY/WX    TMP DP  RH WIND       PRES   REMARKS
BRIGHAM CITY   MOCLDY    48  34  58 CALM      29.92S
HILL AFB       MOCLDY    42  33  69 SE8       29.92F
LOGAN          MOCLDY    42  37  82 W3        29.92S
OGDEN          MOCLDY    42  35  76 S8        29.91F
SALT LAKE CITY MOCLDY    44  37  76 SE8       29.92F
TOOELE VALLEY  PTCLDY    41  36  81 SE10      29.93F
WENDOVER       NOT AVBL
HEBER CITY     PTCLDY    34  28  80 CALM      29.95S
WEST JORDAN    MOCLDY    42  40  93 S3        29.94S

$$

UTZ011>015-024>027-260700-

CENTRAL/NORTHEAST UTAH

CITY           SKY/WX    TMP DP  RH WIND       PRES   REMARKS
PROVO AIRPORT  MOCLDY    42  35  76 SE6       29.96F
MOAB/CANYONLAN PTCLDY    46  35  65 SE6       29.87R
DELTA          PTCLDY    36  28  75 SE7       29.95F WCI  30
PRICE          CLEAR     40  27  59 NW12      29.90S WCI  33
RICHFIELD      CLEAR     34  28  80 CALM      30.00S
ROOSEVELT      CLEAR     39  30  70 NW3       29.91R
VERNAL         CLOUDY    41  32  70 SW6       29.88S

$$

UTZ013>016-019>022-027-260700-

SOUTHERN UTAH

CITY           SKY/WX    TMP DP  RH WIND       PRES   REMARKS
BRYCE CANYON   CLEAR     30  17  58 NW12      30.00S WCI  20
CEDAR CITY     CLEAR     32  22  66 CALM      29.96F
MILFORD        CLEAR     39  24  55 W10       29.96F WCI  32
ST GEORGE      PTCLDY    57  22  25 CALM      29.91F
HANKSVILLE     CLEAR     46  23  39 W5        29.93R
KANAB          CLEAR     37  23  56 NE5       30.00S WCI  34
BLANDING       CLEAR     40  24  52 NW8       29.96R WCI  34

$$

REGIONAL REPORTS     COLORADO/ARIZONA

CITY           SKY/WX    TMP DP  RH WIND       PRES   REMARKS
CRAIG, CO      CLEAR     32  27  81 SW6       29.89R WCI  26
GRAND JUNCTION CLOUDY    39  37  92 N8        29.89S WCI  33
RIFLE, CO      CLOUDY    41  34  76 W7        29.88R
MONTROSE, CO   CLOUDY    36  32  85 SE7       29.92R WCI  30
CORTEZ, CO     CLEAR     33  28  81 NE5       29.89R WCI  29
COLORADO CITY    N/A     36  23  60 CALM      29.98F
PAGE, AZ       CLEAR     54  19  25 W9        29.91R
GRAND CANYON   CLEAR     35  15  44 VRB3      29.99R
KINGMAN, AZ    CLEAR     46  19  34 S3        29.91R
FLAGSTAFF, AZ  CLEAR     36  18  48 E5        29.99R WCI  32

$$

REGIONAL REPORTS    NEVADA/IDAHO/WYOMING

CITY           SKY/WX    TMP DP  RH WIND       PRES   REMARKS
LAS VEGAS, NV  PTCLDY    68  13  12 CALM      29.86S
ELY, NY        CLOUDY    34  23  64 S7        29.99F WCI  28
ELKO, NV       CLOUDY    44  32  62 SW3       29.96S
POCATELLO, ID  PTCLDY    43  30  60 S14       29.89F
BURLEY, ID     CLOUDY    44  31  60 SW8       29.90S
FORT BRIDGER,    N/A     33  32  96 W13       29.95S WCI  24
EVANSTON, WY   CLOUDY    32  29  88 SW9       29.94S WCI  24
ROCK SPRINGS,  CLOUDY    34  30  85 SW8       29.89F WCI  27
KEMMERER, WY     N/A     32  32 100 W5        29.93S WCI  27

$$




USA.gov is the U.S. government's official web portal to all federal, state and local government web resources and services.